Weather History for Middlebury State AP, Middlebu, VT

Change the Weather History Date:

Friday, January 31, 2014

  Actual Average (KMPV) Record (KMPV)
Temperature  
Mean Temperature 26 °F 17 °F  
Max Temperature 32 °F 27 °F 56 °F (1988)
Min Temperature 21 °F 7 °F -15 °F (1951)
Degree Days  
Heating Degree Days 38 48  
Month to date heating degree days 1500  
Since 1 July heating degree days 4645  
Moisture  
Dew Point 10 °F    
Average Humidity 48    
Maximum Humidity 72    
Minimum Humidity 38    
Precipitation  
Precipitation 0.00 in 0.09 in 1.08 in (1969)
Month to date precipitation 2.45  
Year to date precipitation 2.45  
Sea Level Pressure  
Sea Level Pressure 30.02 in    
Wind  
Wind Speed 8 mph (SE)    
Max Wind Speed 15 mph    
Max Gust Speed 21 mph    
Visibility 10 miles    
Events      
T = Trace of Precipitation, MM = Missing Value Source: NWS Daily Summary

Daily Weather History Graph

Daily Weather History Graph

Search for Another Location

Airport:

Trip Planner

Search our weather history database for the weather conditions in past years. The results will help you decide how hot, cold, wet, or windy it might be!

Date:

Astronomy

Jan. 31, 2014 Rise Set
Actual Time 7:10 AM EST 5:01 PM EST
Civil Twilight 6:40 AM EST 5:32 PM EST
Nautical Twilight 6:05 AM EST 6:06 PM EST
Astronomical Twilight 5:31 AM EST 6:40 PM EST
Moon 7:15 AM EST (1/31) 6:26 PM EST (1/31)
Length of Visible Light 10h 52m
Length of Day
9h 50m
New Moon, 1% of the Moon is Illuminated
Jan 31
New Moon
Feb 6
First Quarter
Feb 14
Full
Feb 22
Last Quarter
Mar 1
New

Hourly Weather History & Observations

Time (EST) Temp. Windchill Dew Point Humidity Pressure Visibility Wind Dir Wind Speed Gust Speed Precip Events Conditions
12:15 AM 23.7 °F 15.6 °F 2.5 °F 40% 29.97 in 10.0 mi SE 6.9 mph - N/A   Clear
12:35 AM 22.3 °F 13.9 °F 4.3 °F 46% 29.99 in 10.0 mi ESE 6.9 mph - N/A   Scattered Clouds
12:55 AM 21.9 °F 17.2 °F 4.6 °F 48% 29.98 in 10.0 mi ESE 3.5 mph - N/A   Mostly Cloudy
1:15 AM 22.5 °F 17.8 °F 3.7 °F 45% 29.96 in 10.0 mi East 3.5 mph - N/A   Mostly Cloudy
1:35 AM 23.9 °F 13.5 °F 2.5 °F 40% 29.97 in 10.0 mi SE 10.4 mph 17.3 mph N/A   Overcast
1:55 AM 24.3 °F 11.7 °F 1.9 °F 38% 29.97 in 10.0 mi SE 15.0 mph 20.7 mph N/A   Scattered Clouds
2:15 AM 24.3 °F 12.7 °F 1.6 °F 38% 29.97 in 10.0 mi ESE 12.7 mph 19.6 mph N/A   Clear
2:35 AM 23.9 °F 12.3 °F 1.2 °F 38% 29.97 in 10.0 mi ESE 12.7 mph 16.1 mph N/A   Clear
2:55 AM 24.4 °F 14.9 °F 1.9 °F 38% 29.97 in 10.0 mi SE 9.2 mph 18.4 mph N/A   Clear
3:15 AM 24.3 °F 15.4 °F 3.2 °F 40% 29.97 in 10.0 mi SE 8.1 mph - N/A   Scattered Clouds
3:35 AM 24.6 °F 13.2 °F 1.9 °F 38% 29.92 in 10.0 mi ESE 12.7 mph 20.7 mph N/A   Overcast
3:55 AM 24.8 °F 15.3 °F 2.1 °F 38% 29.95 in 10.0 mi SE 9.2 mph 17.3 mph N/A   Mostly Cloudy
4:15 AM 24.4 °F 14.2 °F 3.4 °F 40% 29.94 in 10.0 mi ESE 10.4 mph 19.6 mph N/A   Overcast
4:35 AM 24.6 °F 12.7 °F 3.7 °F 41% 29.94 in 10.0 mi SE 13.8 mph 19.6 mph N/A   Overcast
4:55 AM 24.8 °F 14.6 °F 3.7 °F 41% 29.93 in 10.0 mi SE 10.4 mph 18.4 mph N/A   Overcast
5:15 AM 25.2 °F 15.1 °F 4.1 °F 41% 29.93 in 10.0 mi SE 10.4 mph 17.3 mph N/A   Overcast
5:35 AM 25.5 °F 16.2 °F 3.0 °F 38% 29.94 in 10.0 mi ESE 9.2 mph - N/A   Overcast
5:55 AM 25.7 °F 15.7 °F 3.6 °F 39% 29.95 in 10.0 mi ESE 10.4 mph 18.4 mph N/A   Overcast
6:15 AM 25.7 °F 15.7 °F 4.1 °F 40% 29.95 in 10.0 mi SE 10.4 mph 18.4 mph N/A   Overcast
6:35 AM 25.7 °F 15.7 °F 4.1 °F 40% 29.96 in 10.0 mi ESE 10.4 mph 16.1 mph N/A   Overcast
6:55 AM 25.7 °F 17.1 °F 3.9 °F 39% 29.97 in 10.0 mi SE 8.1 mph - N/A   Overcast
7:15 AM 25.7 °F 15.7 °F 4.3 °F 40% 29.97 in 10.0 mi ESE 10.4 mph - N/A   Overcast
7:35 AM 26.2 °F 16.4 °F 3.4 °F 38% 29.97 in 10.0 mi SE 10.4 mph 17.3 mph N/A   Overcast
7:55 AM 26.4 °F 16.6 °F 4.1 °F 39% 29.97 in 10.0 mi ESE 10.4 mph 18.4 mph N/A   Overcast
8:15 AM 26.4 °F 16.0 °F 5.2 °F 40% 29.97 in 10.0 mi SE 11.5 mph - N/A   Overcast
8:35 AM 26.6 °F 16.2 °F 5.4 °F 40% 29.99 in 10.0 mi SE 11.5 mph 18.4 mph N/A   Overcast
8:55 AM 26.4 °F 17.3 °F 6.1 °F 42% 29.99 in 10.0 mi SE 9.2 mph - N/A   Overcast
9:15 AM 26.6 °F 15.7 °F 5.9 °F 41% 30.00 in 10.0 mi ESE 12.7 mph - N/A   Overcast
9:35 AM 26.8 °F 16.5 °F 6.1 °F 41% 30.00 in 10.0 mi SE 11.5 mph - N/A   Overcast
9:55 AM 27.5 °F 18.6 °F 6.1 °F 40% 30.02 in 10.0 mi SE 9.2 mph 17.3 mph N/A   Overcast
10:15 AM 28.2 °F 18.9 °F 6.4 °F 40% 30.03 in 10.0 mi SE 10.4 mph - N/A   Overcast
10:35 AM 28.9 °F 19.2 °F 7.9 °F 41% 30.03 in 10.0 mi ESE 11.5 mph 19.6 mph N/A   Overcast
10:55 AM 29.1 °F 18.4 °F 8.6 °F 42% 30.02 in 10.0 mi SE 13.8 mph - N/A   Overcast
11:15 AM 29.8 °F 20.9 °F 8.8 °F 41% 30.02 in 10.0 mi ESE 10.4 mph - N/A   Scattered Clouds
11:35 AM 30.9 °F 21.7 °F 9.9 °F 41% 30.01 in 10.0 mi ESE 11.5 mph 16.1 mph N/A   Clear
11:55 AM 31.5 °F 21.8 °F 10.4 °F 42% 30.01 in 10.0 mi SE 12.7 mph - N/A   Clear
12:15 PM 31.6 °F 22.6 °F 11.3 °F 43% 29.99 in 10.0 mi SE 11.5 mph - N/A   Clear
12:35 PM 32.0 °F 23.0 °F 11.7 °F 43% 30.00 in 10.0 mi SE 11.5 mph 16.1 mph N/A   Clear
12:55 PM 32.0 °F 23.0 °F 12.0 °F 44% 29.99 in 10.0 mi SSE 11.5 mph 16.1 mph N/A   Clear
1:15 PM 32.0 °F 23.6 °F 12.9 °F 45% 29.99 in 10.0 mi SE 10.4 mph - N/A   Clear
1:35 PM 32.0 °F 23.0 °F 12.6 °F 45% 29.99 in 10.0 mi ESE 11.5 mph - N/A   Clear
1:55 PM 32.0 °F 24.2 °F 13.5 °F 46% 30.01 in 10.0 mi SE 9.2 mph - N/A   Clear
2:15 PM 32.0 °F 25.6 °F 13.6 °F 47% 30.01 in 10.0 mi SE 6.9 mph - N/A   Clear
2:35 PM 32.2 °F 25.8 °F 13.6 °F 46% 30.01 in 10.0 mi SE 6.9 mph - N/A   Clear
2:55 PM 32.5 °F 25.5 °F 14.0 °F 46% 30.00 in 10.0 mi SE 8.1 mph - N/A   Clear
3:15 PM 32.9 °F 26.7 °F 14.5 °F 47% 30.00 in 10.0 mi SE 6.9 mph - N/A   Clear
3:35 PM 32.7 °F 25.7 °F 14.7 °F 48% 30.02 in 10.0 mi SE 8.1 mph - N/A   Clear
3:55 PM 32.0 °F 26.4 °F 15.6 °F 51% 30.02 in 10.0 mi SE 5.8 mph - N/A   Clear
4:15 PM 32.4 °F 26.9 °F 14.9 °F 49% 30.02 in 10.0 mi SE 5.8 mph - N/A   Clear
4:35 PM 32.0 °F 25.6 °F 15.6 °F 51% 30.03 in 10.0 mi SE 6.9 mph - N/A   Clear
4:55 PM 31.1 °F 23.7 °F 15.3 °F 52% 30.04 in 10.0 mi SE 8.1 mph - N/A   Clear
5:15 PM 31.1 °F - 15.3 °F 52% 30.05 in 10.0 mi Calm Calm - N/A   Clear
5:35 PM 30.9 °F - 16.5 °F 55% 30.07 in 10.0 mi Calm Calm - N/A   Clear
5:55 PM 30.6 °F - 17.1 °F 57% 30.07 in 10.0 mi Calm Calm - N/A   Clear
6:15 PM 31.3 °F - 15.4 °F 52% 30.08 in 10.0 mi Calm Calm - N/A   Clear
6:35 PM 31.3 °F - 16.2 °F 54% 30.09 in 10.0 mi Calm Calm - N/A   Clear
6:55 PM 30.9 °F 27.5 °F 16.7 °F 56% 30.09 in 10.0 mi East 3.5 mph - N/A   Clear
7:15 PM 30.0 °F - 18.5 °F 62% 30.09 in 10.0 mi Calm Calm - N/A   Clear
7:35 PM 30.6 °F - 17.6 °F 59% 30.11 in 10.0 mi Calm Calm - N/A   Clear
7:55 PM 30.2 °F - 18.3 °F 61% 30.11 in 10.0 mi Calm Calm - N/A   Clear
8:15 PM 29.5 °F - 19.4 °F 66% 30.11 in 10.0 mi Calm Calm - N/A   Clear
8:35 PM 30.4 °F 26.9 °F 18.9 °F 62% 30.12 in 10.0 mi East 3.5 mph - N/A   Clear
8:55 PM 30.9 °F 27.5 °F 18.1 °F 59% 30.12 in 10.0 mi East 3.5 mph - N/A   Clear
9:15 PM 30.4 °F 25.6 °F 18.3 °F 61% 30.14 in 10.0 mi SE 4.6 mph - N/A   Clear
9:35 PM 30.7 °F - 18.5 °F 60% 30.13 in 10.0 mi Calm Calm - N/A   Clear
9:55 PM 30.0 °F - 19.4 °F 65% 30.14 in 10.0 mi Calm Calm - N/A   Clear
10:15 PM 28.4 °F 24.6 °F 19.6 °F 70% 30.15 in 10.0 mi East 3.5 mph - N/A   Clear
10:35 PM 30.2 °F 26.7 °F 19.6 °F 65% 30.14 in 10.0 mi East 3.5 mph - N/A   Clear
10:55 PM 30.4 °F - 19.2 °F 63% 30.14 in 10.0 mi Calm Calm - N/A   Clear
11:15 PM 27.7 °F - 19.4 °F 71% 30.14 in 10.0 mi Calm Calm - N/A   Clear
11:35 PM 28.0 °F - 19.6 °F 71% 30.15 in 10.0 mi Calm Calm - N/A   Clear
11:55 PM 28.4 °F - 20.5 °F 72% 30.16 in 10.0 mi Calm Calm - N/A   Clear